<?xml version="1.0" encoding="UTF-8" standalone="no" ?>
<gpx xmlns="http://www.topografix.com/GPX/1/1" xmlns:xsi="http://www.w3.org/2001/XMLSchema-instance" xsi:schemaLocation="http://www.topografix.com/GPX/1/1 http://www.topografix.com/GPX/1/1/gpx.xsd" version="1.1" creator="VisuGPX - https://www.visugpx.com">
  <metadata>
    <name>Refuge des Fornells et Coll del Pam depuis Pyrénées 2000</name>
  </metadata>
  <wpt lat="42.51539" lon="2.05546">
    <ele>1802</ele>
    <name><![CDATA[Départ d'un chemin forestier (place de parking)]]></name>
    <type><![CDATA[GENERIC]]></type>
  </wpt>
  <wpt lat="42.52092" lon="2.05347">
    <ele>1813</ele>
    <name><![CDATA[Croisement de chemins forestiers]]></name>
    <type><![CDATA[GENERIC]]></type>
  </wpt>
  <wpt lat="42.51792" lon="2.04598">
    <ele>1878</ele>
    <name><![CDATA[Point de passage 3]]></name>
    <type><![CDATA[GENERIC]]></type>
  </wpt>
  <wpt lat="42.53345" lon="2.04358">
    <ele>1998</ele>
    <name><![CDATA[Coll del Pam]]></name>
    <type><![CDATA[GENERIC]]></type>
  </wpt>
  <wpt lat="42.53436" lon="2.04431">
    <ele>1999</ele>
    <name><![CDATA[Belvédère du Coll del Palm]]></name>
    <type><![CDATA[GENERIC]]></type>
  </wpt>
  <wpt lat="42.52896" lon="2.05242">
    <ele>1939</ele>
    <name><![CDATA[Bifurcation]]></name>
    <type><![CDATA[GENERIC]]></type>
  </wpt>
  <wpt lat="42.51537" lon="2.05544">
    <ele>1801</ele>
    <name><![CDATA[Départ d'un chemin forestier (place de parking)]]></name>
    <type><![CDATA[GENERIC]]></type>
  </wpt>
  <trk>
    <name><![CDATA[Refuge des Fornells et Coll del Pam depuis Pyrénées 2000]]></name>
    <trkseg>
      <trkpt lat="42.51539" lon="2.05546">
        <ele>1802</ele>
        <time>2022-04-07T16:56:11.000Z</time>
      </trkpt>
      <trkpt lat="42.51592" lon="2.05538">
        <ele>1806</ele>
        <time>2022-04-07T16:56:11.000Z</time>
      </trkpt>
      <trkpt lat="42.51646" lon="2.05512">
        <ele>1807</ele>
        <time>2022-04-07T16:56:11.000Z</time>
      </trkpt>
      <trkpt lat="42.51683" lon="2.05538">
        <ele>1807</ele>
        <time>2022-04-07T16:56:11.000Z</time>
      </trkpt>
      <trkpt lat="42.51713" lon="2.05609">
        <ele>1807</ele>
        <time>2022-04-07T16:56:11.000Z</time>
      </trkpt>
      <trkpt lat="42.51882" lon="2.05583">
        <ele>1809</ele>
        <time>2022-04-07T16:56:11.000Z</time>
      </trkpt>
      <trkpt lat="42.51928" lon="2.05548">
        <ele>1805</ele>
        <time>2022-04-07T16:56:11.000Z</time>
      </trkpt>
      <trkpt lat="42.52002" lon="2.05454">
        <ele>1810</ele>
        <time>2022-04-07T16:56:11.000Z</time>
      </trkpt>
      <trkpt lat="42.52092" lon="2.05347">
        <ele>1813</ele>
        <time>2022-04-07T16:56:11.000Z</time>
      </trkpt>
      <trkpt lat="42.52062" lon="2.05252">
        <ele>1813</ele>
        <time>2022-04-07T16:56:11.000Z</time>
      </trkpt>
      <trkpt lat="42.51978" lon="2.05141">
        <ele>1820</ele>
        <time>2022-04-07T16:56:11.000Z</time>
      </trkpt>
      <trkpt lat="42.51929" lon="2.05003">
        <ele>1830</ele>
        <time>2022-04-07T16:56:11.000Z</time>
      </trkpt>
      <trkpt lat="42.51898" lon="2.0484">
        <ele>1856</ele>
        <time>2022-04-07T16:56:11.000Z</time>
      </trkpt>
      <trkpt lat="42.51872" lon="2.04697">
        <ele>1869</ele>
        <time>2022-04-07T16:56:11.000Z</time>
      </trkpt>
      <trkpt lat="42.51792" lon="2.04598">
        <ele>1878</ele>
        <time>2022-04-07T16:56:11.000Z</time>
      </trkpt>
      <trkpt lat="42.51765" lon="2.0457">
        <ele>1878</ele>
        <time>2022-04-07T16:56:11.000Z</time>
      </trkpt>
      <trkpt lat="42.51782" lon="2.04512">
        <ele>1880</ele>
        <time>2022-04-07T16:56:11.000Z</time>
      </trkpt>
      <trkpt lat="42.5182" lon="2.0448">
        <ele>1882</ele>
        <time>2022-04-07T16:56:11.000Z</time>
      </trkpt>
      <trkpt lat="42.5185" lon="2.0446">
        <ele>1885</ele>
        <time>2022-04-07T16:56:11.000Z</time>
      </trkpt>
      <trkpt lat="42.51993" lon="2.04463">
        <ele>1897</ele>
        <time>2022-04-07T16:56:11.000Z</time>
      </trkpt>
      <trkpt lat="42.52062" lon="2.04413">
        <ele>1900</ele>
        <time>2022-04-07T16:56:11.000Z</time>
      </trkpt>
      <trkpt lat="42.521" lon="2.0433">
        <ele>1904</ele>
        <time>2022-04-07T16:56:11.000Z</time>
      </trkpt>
      <trkpt lat="42.52184" lon="2.0433">
        <ele>1905</ele>
        <time>2022-04-07T16:56:11.000Z</time>
      </trkpt>
      <trkpt lat="42.52209" lon="2.04398">
        <ele>1906</ele>
        <time>2022-04-07T16:56:11.000Z</time>
      </trkpt>
      <trkpt lat="42.52287" lon="2.04437">
        <ele>1909</ele>
        <time>2022-04-07T16:56:11.000Z</time>
      </trkpt>
      <trkpt lat="42.52274" lon="2.04519">
        <ele>1907</ele>
        <time>2022-04-07T16:56:11.000Z</time>
      </trkpt>
      <trkpt lat="42.52323" lon="2.04628">
        <ele>1909</ele>
        <time>2022-04-07T16:56:11.000Z</time>
      </trkpt>
      <trkpt lat="42.52399" lon="2.04581">
        <ele>1911</ele>
        <time>2022-04-07T16:56:11.000Z</time>
      </trkpt>
      <trkpt lat="42.52423" lon="2.04591">
        <ele>1912</ele>
        <time>2022-04-07T16:56:11.000Z</time>
      </trkpt>
      <trkpt lat="42.52454" lon="2.04716">
        <ele>1912</ele>
        <time>2022-04-07T16:56:11.000Z</time>
      </trkpt>
      <trkpt lat="42.52552" lon="2.04787">
        <ele>1920</ele>
        <time>2022-04-07T16:56:11.000Z</time>
      </trkpt>
      <trkpt lat="42.52563" lon="2.04843">
        <ele>1921</ele>
        <time>2022-04-07T16:56:11.000Z</time>
      </trkpt>
      <trkpt lat="42.52612" lon="2.04883">
        <ele>1926</ele>
        <time>2022-04-07T16:56:11.000Z</time>
      </trkpt>
      <trkpt lat="42.5266" lon="2.04918">
        <ele>1931</ele>
        <time>2022-04-07T16:56:11.000Z</time>
      </trkpt>
      <trkpt lat="42.52734" lon="2.04931">
        <ele>1934</ele>
        <time>2022-04-07T16:56:11.000Z</time>
      </trkpt>
      <trkpt lat="42.52797" lon="2.04851">
        <ele>1940</ele>
        <time>2022-04-07T16:56:11.000Z</time>
      </trkpt>
      <trkpt lat="42.52899" lon="2.04667">
        <ele>1949</ele>
        <time>2022-04-07T16:56:11.000Z</time>
      </trkpt>
      <trkpt lat="42.53066" lon="2.04512">
        <ele>1967</ele>
        <time>2022-04-07T16:56:11.000Z</time>
      </trkpt>
      <trkpt lat="42.53152" lon="2.04431">
        <ele>1982</ele>
        <time>2022-04-07T16:56:11.000Z</time>
      </trkpt>
      <trkpt lat="42.53193" lon="2.04362">
        <ele>1988</ele>
        <time>2022-04-07T16:56:11.000Z</time>
      </trkpt>
      <trkpt lat="42.5324" lon="2.0434">
        <ele>1991</ele>
        <time>2022-04-07T16:56:11.000Z</time>
      </trkpt>
      <trkpt lat="42.53345" lon="2.04358">
        <ele>1998</ele>
        <time>2022-04-07T16:56:11.000Z</time>
      </trkpt>
      <trkpt lat="42.53414" lon="2.04349">
        <ele>2001</ele>
        <time>2022-04-07T16:56:11.000Z</time>
      </trkpt>
      <trkpt lat="42.53436" lon="2.04431">
        <ele>1999</ele>
        <time>2022-04-07T16:56:11.000Z</time>
      </trkpt>
      <trkpt lat="42.53414" lon="2.04345">
        <ele>2001</ele>
        <time>2022-04-07T16:56:11.000Z</time>
      </trkpt>
      <trkpt lat="42.53364" lon="2.04375">
        <ele>2000</ele>
        <time>2022-04-07T16:56:11.000Z</time>
      </trkpt>
      <trkpt lat="42.53329" lon="2.0437">
        <ele>1996</ele>
        <time>2022-04-07T16:56:11.000Z</time>
      </trkpt>
      <trkpt lat="42.53313" lon="2.04503">
        <ele>1998</ele>
        <time>2022-04-07T16:56:11.000Z</time>
      </trkpt>
      <trkpt lat="42.53262" lon="2.04632">
        <ele>1991</ele>
        <time>2022-04-07T16:56:11.000Z</time>
      </trkpt>
      <trkpt lat="42.53237" lon="2.04774">
        <ele>1991</ele>
        <time>2022-04-07T16:56:11.000Z</time>
      </trkpt>
      <trkpt lat="42.53167" lon="2.05006">
        <ele>1972</ele>
        <time>2022-04-07T16:56:11.000Z</time>
      </trkpt>
      <trkpt lat="42.52949" lon="2.05207">
        <ele>1952</ele>
        <time>2022-04-07T16:56:11.000Z</time>
      </trkpt>
      <trkpt lat="42.52896" lon="2.05242">
        <ele>1939</ele>
        <time>2022-04-07T16:56:11.000Z</time>
      </trkpt>
      <trkpt lat="42.52861" lon="2.05173">
        <ele>1945</ele>
        <time>2022-04-07T16:56:11.000Z</time>
      </trkpt>
      <trkpt lat="42.52867" lon="2.05057">
        <ele>1936</ele>
        <time>2022-04-07T16:56:11.000Z</time>
      </trkpt>
      <trkpt lat="42.52851" lon="2.0501">
        <ele>1933</ele>
        <time>2022-04-07T16:56:11.000Z</time>
      </trkpt>
      <trkpt lat="42.52801" lon="2.05006">
        <ele>1928</ele>
        <time>2022-04-07T16:56:11.000Z</time>
      </trkpt>
      <trkpt lat="42.5276" lon="2.05018">
        <ele>1925</ele>
        <time>2022-04-07T16:56:11.000Z</time>
      </trkpt>
      <trkpt lat="42.52718" lon="2.05018">
        <ele>1923</ele>
        <time>2022-04-07T16:56:11.000Z</time>
      </trkpt>
      <trkpt lat="42.52674" lon="2.05074">
        <ele>1916</ele>
        <time>2022-04-07T16:56:11.000Z</time>
      </trkpt>
      <trkpt lat="42.5263" lon="2.051">
        <ele>1908</ele>
        <time>2022-04-07T16:56:11.000Z</time>
      </trkpt>
      <trkpt lat="42.52592" lon="2.05117">
        <ele>1897</ele>
        <time>2022-04-07T16:56:11.000Z</time>
      </trkpt>
      <trkpt lat="42.52522" lon="2.05087">
        <ele>1889</ele>
        <time>2022-04-07T16:56:11.000Z</time>
      </trkpt>
      <trkpt lat="42.52472" lon="2.05074">
        <ele>1880</ele>
        <time>2022-04-07T16:56:11.000Z</time>
      </trkpt>
      <trkpt lat="42.52386" lon="2.051">
        <ele>1859</ele>
        <time>2022-04-07T16:56:11.000Z</time>
      </trkpt>
      <trkpt lat="42.52323" lon="2.05169">
        <ele>1849</ele>
        <time>2022-04-07T16:56:11.000Z</time>
      </trkpt>
      <trkpt lat="42.52272" lon="2.05212">
        <ele>1839</ele>
        <time>2022-04-07T16:56:11.000Z</time>
      </trkpt>
      <trkpt lat="42.522" lon="2.05242">
        <ele>1823</ele>
        <time>2022-04-07T16:56:11.000Z</time>
      </trkpt>
      <trkpt lat="42.52114" lon="2.0531">
        <ele>1814</ele>
        <time>2022-04-07T16:56:11.000Z</time>
      </trkpt>
      <trkpt lat="42.52067" lon="2.05383">
        <ele>1813</ele>
        <time>2022-04-07T16:56:11.000Z</time>
      </trkpt>
      <trkpt lat="42.51934" lon="2.05538">
        <ele>1806</ele>
        <time>2022-04-07T16:56:11.000Z</time>
      </trkpt>
      <trkpt lat="42.51887" lon="2.05579">
        <ele>1808</ele>
        <time>2022-04-07T16:56:11.000Z</time>
      </trkpt>
      <trkpt lat="42.51708" lon="2.05611">
        <ele>1806</ele>
        <time>2022-04-07T16:56:11.000Z</time>
      </trkpt>
      <trkpt lat="42.51679" lon="2.05536">
        <ele>1807</ele>
        <time>2022-04-07T16:56:11.000Z</time>
      </trkpt>
      <trkpt lat="42.51638" lon="2.05508">
        <ele>1807</ele>
        <time>2022-04-07T16:56:11.000Z</time>
      </trkpt>
      <trkpt lat="42.51578" lon="2.05546">
        <ele>1806</ele>
        <time>2022-04-07T16:56:11.000Z</time>
      </trkpt>
      <trkpt lat="42.51537" lon="2.05544">
        <ele>1801</ele>
        <time>2022-04-07T16:56:11.000Z</time>
      </trkpt>
    </trkseg>
  </trk>
</gpx>